Погода в Наречене

Болгария     41°53′57″N   24°44′55″E
темп.,
°C
ветер,
м/с
пор.,
м/с
влажн.,
%
обл.,
%
осадки,
мм/ч
давл.,
гПа
погр.,
м
14 июня, пн
пн1400:00+11зсз512789 0.3 1016519
03:00+12зсз5106383 0.3 10151072
06:00+11з4106746 0.0 1014686
09:00+12зсз466091 0.0 10151177
12:00+15сз465673 0.3 10151842
15:00+14сз6764100 1.2 10141603
18:00+12сз498044 1.3 1014623
21:00+10зсз248996 2.8 101585
15 июня, вт
вт1500:00+10з238995 0.4 101755
03:00+9юз239046 0.4 101653
06:00+9зюз238561 0.0 101679
09:00+13зсз3462100 0.0 1016893
12:00+16сз4452100 0.0 10161247
15:00+17сз5648100 0.0 10141737
18:00+13ссз4881100 0.8 1015542
21:00+11юз4787100 3.2 1014164
16 июня, ср
ср1600:00+14з5126959 0.0 1014694
03:00+13з4126319 0.0 1014571
06:00+13зюз411674 0.0 1014499
09:00+16зсз3664100 0.0 1014629
12:00+20сз55525 0.0 10151246
15:00+22сз44466 0.3 10141815
18:00+21ссз245395 0.4 10141714
21:00+15юз228588 1.6 101625
17 июня, чт
чт1700:00+13ююз32895 0.8 101740
03:00+12юз32885 0.8 101738
06:00+12юз328892 0.0 101736
09:00+20сз235499 0.0 1017926
12:00+22ссз334487 0.0 10171386
15:00+24ссв224022 0.1 10161871
18:00+23всв124542 0.6 10161666
21:00+17зюз32785 0.9 101734
18 июня, пт
пт1800:00+14юз329037 1.7 101832
03:00+13юз32895 1.9 101833
06:00+13ююз32885 0.1 101838
09:00+19ссз12705 0.2 1017269
12:00+24ссз34431 0.3 10151740
15:00+25с344013 0.3 10141938
18:00+22юз2361100 0.9 1013357
21:00+15юз328510 1.6 101629